Regional Weather Roundup
Issued by NWS Wakefield, VA

Home | Current Version | Previous Version | Text Only | Print | Product List | Glossary Off
Versions: 1 2 3 4 5 6 7 8 9 10 11 12 13 14 15 16 17 18 19 20 21 22 23 24 25 26 27 28 29 30 31 32 33 34 35 36 37 38 39 40 41 42 43 44 45 46 47 48 49 50

000
ASUS41 KAKQ 310915
RWRAKQ

REGIONAL WEATHER ROUNDUP
NATIONAL WEATHER SERVICE WAKEFIELD VA
500 AM EDT FRI JUL 31 2015

Note: "fair" indicates few or no clouds below 12,000 feet with no
significant weather and/or obstructions to visibility. * = Denotes
station may not report precipitation (e.g., rain,snow,etc.),
thunder or fog.

VAZ042-051-052>054-056-311000-
NORTHERN VIRGINIA

CITY           SKY/WX    TMP DP  RH WIND       PRES   REMARKS
WASH NATIONAL  CLEAR     76  62  62 NW8       29.92S
DULLES         CLEAR     66  61  84 CALM      29.94S
FORT BELVOIR   CLEAR     66  65  96 W1        29.92S
QUANTICO       NOT AVBL
FREDERICKSBRG* CLEAR     70  70 100 CALM      29.91S
STAFFORD*      CLEAR     65  61  85 NW7       29.97R
WARRENTON      CLEAR     63  63 100 CALM      29.93S
CULPEPER*      CLEAR     64  63  96 CALM      29.95S
MANASSAS*      CLEAR     64  63  94 CALM      29.94R
LEESBURG*      CLEAR     72  63  73 NW8       29.95S
WINCHESTER     CLEAR     70  59  68 W8        29.96S
FRONT ROYAL*   FAIR      63  59  88 S5        29.96S
LURAY*         FAIR      63  63 100 CALM      29.99R
$$

VAZ048-049-060>072-079>083-311000-
CENTRAL AND SOUTH CENTRAL VIRGINIA

CITY           SKY/WX    TMP DP  RH WIND       PRES   REMARKS
RICHMOND       MOCLDY    76  71  85 N6        29.91R
CHESTERFIELD*  CLOUDY    73  63  68 NW3       29.93R
PETERSBURG*    CLOUDY    74  74 100 CALM      29.92S
HANOVER        CLOUDY    72  68  87 CALM      29.93R
TAPPAHANNOCK*  CLEAR     72  67  85 CALM      29.92R
QUINTON*       CLOUDY    71  68  91 W5        29.90S
CHARLOTTSVILLE CLEAR     65  62  90 CALM      29.96R
GORDONSVILLE*  FAIR      63  63 100 CALM      29.94S
ORANGE*        CLEAR     64  64 100 CALM      29.96S
LOUISA*        CLEAR     68  64  88 CALM      29.94R
BUMPASS*       FAIR      67  66  96 CALM      29.93R
FARMVILLE*     PTCLDY    71  71  99 CALM      29.93S
CREWE*         FAIR     N/A N/A N/A NW3       29.93S
FORT PICKETT*  FAIR      72  71  97 N3        29.93S
CHASE CITY*    PTSUNNY   74  73  96 CALM      29.94S
CLARKSVILLE*   CLOUDY    73  70  88 NW3       29.93S
SOUTH HILL*    PTCLDY    73  72  98 N6        29.98S
LAWRENCEVILLE* FAIR      73  72  94 CALM      29.91S
EMPORIA*       MOCLDY    73  72  94 N5        29.92S
$$

VAZ088>098-311000-
SOUTHEAST VIRGINIA

CITY           SKY/WX    TMP DP  RH WIND       PRES   REMARKS
NORFOLK        HVY RAIN  75  72  90 NE14      29.89S FOG
VIRGINIA BEACH TSTM      76  71  85 NW7       29.89R FOG
NORFOLK NAVAL  HVY RAIN  75  74  96 NE7       29.91R FOG
WEST POINT*    PTCLDY    75  73  91 CALM      29.91S
SALUDA*        CLOUDY    74  73  98 CALM      29.89S
NEWPORT NEWS   LGT RAIN  74  71  91 NW8       29.89F
LANGLEY AFB    LGT RAIN  75  73  94 NE9       29.89F FOG
FORT EUSTIS    MOCLDY    74  74 100 VRB1      29.88R
WILLIAMSBURG*    N/A     77  75  94 CALM      29.91S
HR EXEC AP*    PTSUNNY   73  70  88 NE6       29.91F
FRANKLIN*      CLOUDY    74  73  96 NE7       29.89F
WAKEFIELD      PTCLDY    72  68  87 CALM      29.90S
$$

VAZ020-022-025-037-045-311000-
WEST CENTRAL AND SOUTHWEST VIRGINIA

CITY           SKY/WX    TMP DP  RH WIND       PRES   REMARKS
STAUNTON*      CLEAR     59  57  92 CALM      30.03S FOG
WAYNESBORO*    FAIR      60  59  96 CALM      30.02R
HOT SPRINGS VA CLEAR     62  56  82 NW7       30.11R
LYNCHBURG      PTCLDY    71  58  63 N5        29.98R
DANVILLE       MOCLDY    71  63  75 N5        29.96R
SOUTH BOSTON*  CLOUDY    71  66  84 N3        29.95R
MARTINSVILLE   CLEAR     65  59  80 CALM      30.01R
ROANOKE        CLEAR     66  58  75 W7        30.03R
BLACKSBURG     CLEAR     59  58  98 CALM      30.09S
DUBLIN*          N/A     63  58  84 CALM      30.09R
MARION*        CLEAR     61  59  94 CALM      30.13S
HILLSVILLE*    CLEAR     64  58  81 NW7       30.09R
RICHLANDS*     FAIR      62  60  93 CALM      30.12R
WISE*          CLEAR     63  61  94 CALM      30.14S
ABINGDON*      CLEAR     62  59  90 CALM      30.09S
$$

MDZ021>025-VAZ099-100-311000-
SOUTHERN MARYLAND AND THE DELMARVA PENINSULA

CITY           SKY/WX    TMP DP  RH WIND       PRES   REMARKS
PATUXENT RIVER CLEAR     74  68  81 NW9       29.89S
BAY BRIDGE APT   N/A     75  64  69 N3        29.90S
LEONARDTOWN    CLEAR     70  64  83 CALM      29.92R
DOVER          CLEAR     69  66  90 N8        29.87S
GEORGETOWN     PTCLDY    73  72  96 CALM      29.89S
EASTON         CLEAR     73  73 100 N5        29.93S
CAMBRIDGE      CLEAR     72  70  94 CALM      29.89S
SALISBURY      PTCLDY    74  73  97 N5        29.88F
OCEAN CITY     MOCLDY    75  73  93 NW6       29.87F FOG
WALLOPS ISLAND MOCLDY    75  75 100 CALM      29.88F
ACCOMACK*      MOCLDY    73  55  53 CALM      29.88S HAZE
$$

NCZ012>017-030>032-311000-
NORTH CENTRAL AND EASTERN NORTH CAROLINA

CITY           SKY/WX    TMP DP  RH WIND       PRES   REMARKS
ROANOKE RAPIDS PTSUNNY   75  72  88 N7        29.89S
RALEIGH        PTCLDY    76  64  66 CALM      29.93R
ELIZABETH CITY MOCLDY    78  76  93 CALM      29.87S
AHOSKIE*       MOCLDY    76  74  92 N6        29.88S
EDENTON*         N/A     79  74  86 CALM      29.87F
CURRITUCK*     MOCLDY    77  74  90 CALM      29.87F
KILL DEVIL HLS PTCLDY    78  73  86 CALM      29.86S
MANTEO         PTCLDY    79  75  87 SW5       29.87F
CAPE HATTERAS  CLEAR     78  75  90 CALM      29.87R
TARBORO*         N/A     76  74  93 CALM      29.88S
GOLDSBORO      PTCLDY    78  76  93 NW5       29.85S
WASHINGTON     PTCLDY    75  74  95 CALM      29.87F
GREENVILLE     MOCLDY    79  77  94 CALM      29.89S
NEW BERN       MOCLDY    74  72  93 CALM      29.88S FOG
WILMINGTON     CLOUDY    77  75  93 CALM      29.87R
$$

VAZ048-311000-
ELSEWHERE

CITY           SKY/WX    TMP DP  RH WIND       PRES   REMARKS
HARRISBURG PA  PTCLDY    67  61  81 CALM      29.90S
BALTIMORE      CLEAR     68  63  84 W3        29.91R
ANNAPOLIS      CLEAR     75  66  73 NW5       29.90R
ANDREWS AFB    CLEAR     72  62  72 NW6       29.91S
PHILADELPHIA   CLEAR     73  61  65 CALM      29.88S
HENDERSON NC   CLEAR     73  67  83 N6        29.94R
GREENSBORO     CLOUDY    73  60  63 N5        29.97R
ROCKY MOUNT    PTCLDY    77  75  93 N7        29.88S
$$

VAZ100-311000-
MARINE

STATION/POSITION TIME  TEMP    WIND        PRES    WAVE   SWELL
                       AIR SEA DIR/SP/G            HT/PER HT/PER
                 (UTC) (F)     (DEG/KT/KT) (MB)    (FT/S) (FT/S)
BRANDYWINE LGT   0800   79 77  330/ 10/ 13 1011.9R
CAPE MAY NJ      0800   77 79  310/  7/ 11 1011.3R
LEWES DE         0800   75 72  290/  5/  6 1011.7R
15NM E FENWICK I 0850   78 79  270/  6/  8 1011.7F   3/ 6   3/ 6
OCEAN-CITY-INLET 0800   77 77  320/  5/  6 1010.9R
WACHAPREAGUE VA  0800   74 85  360/  2/  5 1012.0
GOOSES REEF MD   0900   80 82  360/ 14/ 16 1013.4R
COVE POINT MD    0800   78     330/  5/ 10 1012.9S
SOLOMONS ISLAND  0800      82                N/A
BISHOPS HEAD MD  0800   78 83  330/  4/  5 1011.1S
PINEY POINT MD   0800           10/ 10/ 12   N/A
POTOMAC MD       0900   78 82   10/  8/ 14 1011.0S   0
CAMBRIDGE MD     0800   78 83  300/  5/  6 1011.3R
LEWISETTA VA     0800   77 83  300/  3/  4 1011.8F
RAPPAHANNOCK LGT 0800           60/  5/  6 1012.3F
STINGRAY PT      0900   80 83  310/  2/  4 1012.2F   1
YORK RVR RNG VA  0800   77      30/  7/ 10 1011.8R
YORKTOWN VA      0800   78 83   70/ 11/ 12 1011.9S
JAMESTOWN VA     0900   76 85   70/  4/  6   N/A
DOMINION TERM VA 0800   75      10/  5/  6 1012.2R
KIPTOPEKE VA     0800      82   40/  4/  5   N/A
CHES BAY BRIDGE  0800   76 82   20/ 16/ 19 1011.4S
CAPE HENRY VA    0800   75      30/ 16/ 19   N/A
CHESAPEAKE LGHT  0800   77      10/ 15/ 17 1012.5R
WILLOUBY STN VA  0800   76      10/ 11/ 13 1013.1R
CAPE HENRY BUOY  0828      80                N/A     3/ 6
1ST LANDING BUOY 0900      79              1011.9R   2/ 3
CAPE CHARLES BUO 0826      76                N/A     3/ 6   2/ 6
OFFSHORE WE BUOY 0811      82                N/A     4/ 6   3/ 6
64NM E OF VA BCH 0850   81 81  210/ 10/ 12 1011.1F   4/ 6   3/ 6
DUCK PIER NC     0800   81 63  190/  7/  8 1010.6F
44100 DUCK FRF   0824      80                N/A     3/ 8
44056 DUCK FRF   0811      69                N/A     2/ 9
OREGON INLET NC  0800   82 83  210/  7/  8 1011.5S
HATTERAS NC      0800   81 83  150/  4/  6 1010.9F
DIAMOND SHLS NC  0850   83 85  160/  6/  8 1011.0F   4/ 8   3/ 8
CAPE LOOKOUT NC  0900   80     350/  7/  9 1010.8S
$$



USA.gov is the U.S. government's official web portal to all federal, state and local government web resources and services.